Weather in Boryatino

Russia / Tula Oblast     53°24′54″N   38°09′34″E
temp.,
°C
wind,
m/s
gust,
m/s
humid.,
%
clouds,
%
prec.,
mm/h
press.,
hPa
HPBL,
m
15 april, thu
thu1500:00+12se3353100 0.0 101645
03:00+10ese3464100 0.0 101555
06:00+11ese4662100 0.0 101594
09:00+13e3457100 0.0 1015228
12:00+17ese5644100 0.0 1014947
15:00+18se4542100 0.0 10131243
18:00+16sse6952100 0.4 1013519
21:00+13se61267100 2.0 1015555
16 april, fri
fri1600:00+11sse367696 0.2 1015128
03:00+10ene338299 0.3 101552
06:00+10ssw2388100 0.4 101670
09:00+11n2374100 0.7 1017180
12:00+14ne4466100 0.1 1017749
15:00+16e455798 0.1 10171263
18:00+13se4871100 2.1 1017328
21:00+11ese3781100 3.1 1018237
17 april, sat
sat1700:00+10ne5891100 1.4 1018232
03:00+9ne589587 2.8 1019275
06:00+8ne599691 0.2 1019278
09:00+10ene578892 0.2 1020461
12:00+14ene81066100 0.0 10191080
15:00+16ene8115999 0.3 10191643
18:00+14e71269100 3.0 10191177
21:00+11ene61277100 5.9 1021827
18 april, sun
sun1800:00+9ne7137495 0.0 1022514
03:00+6ne7137019 0.0 1023442
06:00+5ne612745 0.0 1024352
09:00+8ene710615 0.0 1025586
12:00+12ene79460 0.0 10251230
15:00+13ene78415 0.0 10261589
18:00+12ene58485 0.0 10261048
21:00+9ne512576 0.0 1027354
19 april, mon
mon1900:00+6ene39695 0.0 1028206
03:00+5ne49775 0.0 1029189
06:00+4ene49835 0.0 1030224
09:00+8ene68685 0.0 1031591
12:00+11e675459 0.0 10311584
15:00+12e664671 0.0 10301799
18:00+11e57465 0.0 10311530
21:00+7e511495 0.0 1031430